sat.trackr.live / text

‹ back to catalog

YUNYAO-1 46

NORAD 63347 · 2025-059D

PAYLOAD ACTIVE UNKNOWN

§ Identity

Operator
Country
PRC
Launch date
2025-03-21
Launch site
JSC
Launch vehicle
Mass (kg)
RCS (m²)

External: N2YO · Heavens-Above · Gunter

§ Orbital elements

Epoch: 2026-05-25T04:23:16.703808Z

Period
95.31 min
Inclination
97.6118°
Eccentricity
0.0011017
Mean motion
15.10838136 rev/d
Perigee alt
526.0 km
Apogee alt
541.3 km
Semi-major
6,911.8 km
B*
2.0472e-4
RAAN
326.7058°
Arg perigee
219.4227°
Mean anomaly
140.6202°
Rev number
6,482

§ Raw data

YUNYAO-1 461 63347U 25059D   26145.18283222  .00003342  00000+0  20472-3 0  99992 63347  97.6118 326.7058 0011017 219.4227 140.6202 15.10838136 64826

JSON: /api/v1/satellites/63347 · /tle

For live sub-satellite position, see the globe view (requires WebGL).

§ Visibility from observer

Set your observer location to see the next 7 days of passes ≥ 10°. The values pass through the URL so the page stays shareable.

No JS? Fill the form by hand. The geolocation button needs JavaScript.